カタログに戻る

DELTA 1 DEB

運用中SSO
NORAD 21678·DEBRIS·🇺🇸 United States

打ち上げ Jun 12, 1975 から Vandenberg Space Force Base

Loading…

次のパス (今後24時間)

TLE

最新Source: Space-Track

元期: Sep 14, 2026, 14:31 UTC

1 21678U 75052JE  26257.60486437  .00001564  00000-0  28676-2 0  9990
2 21678 100.0174 163.2285 0354639  94.6940  22.1700 13.20108619688306

AllMySatでDELTA 1 DEBをリアルタイム追跡

Download on the App Store